Location: Newark
(37.7892°N, 97.1083°W)
Time: 10:15:52
(UTC+00:00)

N. Korean satellite - Visible Passes

Search period start: 06 December 2019 00:00
Search period end: 16 December 2019 00:00
Orbit: 456 x 506 km, 97.2° (Epoch: 05 December)

Date Brightness Start Highest point End Pass type
(mag) Time Alt. Az. Time Alt. Az. Time Alt. Az.
06 Dec 8.3 00:02:06 10° SSW 00:05:34 37° W 00:09:04 10° NNW visible
06 Dec 9.5 11:31:00 10° NE 11:33:29 18° E 11:35:55 10° SE visible
06 Dec 6.7 23:36:25 10° SSE 23:40:07 87° WSW 23:43:51 10° NNW visible
07 Dec 6.7 12:38:05 10° N 12:41:31 48° WNW 12:44:52 10° SSW visible
08 Dec 10.2 00:47:18 10° WSW 00:48:20 11° W 00:49:20 10° WNW visible
08 Dec 6.8 12:12:36 10° NNE 12:16:08 70° ESE 12:19:35 10° S visible
09 Dec 9.4 00:19:45 10° SSW 00:22:44 23° W 00:25:42 10° NW visible
09 Dec 8.6 11:47:30 10° NE 11:50:38 29° E 11:53:42 10° SSE visible
09 Dec 7.8 23:53:37 10° S 23:57:13 49° W 00:00:50 10° NNW visible
10 Dec 9.8 11:23:11 10° ENE 11:25:03 14° E 11:26:54 10° SE visible
10 Dec 7.4 12:55:27 10° NNW 12:58:29 28° WNW 13:01:29 10° SW visible
11 Dec 6.4 12:29:40 10° N 12:33:09 64° WNW 12:36:34 10° SSW visible
12 Dec 10.0 00:37:56 10° SW 00:39:54 14° W 00:41:53 10° WNW visible
12 Dec 7.3 12:04:18 10° NNE 12:07:44 52° E 12:11:05 10° S visible
13 Dec 8.9 00:11:06 10° SSW 00:14:20 28° W 00:17:34 10° NW visible
13 Dec 9.0 11:39:22 10° NE 11:42:12 23° E 11:44:58 10° SSE visible
13 Dec 7.2 23:45:11 10° S 23:48:51 64° W 23:52:30 10° NNW visible
14 Dec 10.1 11:15:50 10° E 11:16:35 10° E 11:17:18 10° ESE visible
14 Dec 7.0 12:46:55 10° N 12:50:08 35° WNW 12:53:17 10° SW visible
15 Dec 6.3 12:21:16 10° N 12:24:45 85° WNW 12:28:11 10° SSW visible
